CAPE
2574 2480 2420 2218 1886 1526 1626 1804 1669 1737 2037 2242 2310 2380 2380 2794 2575 2773 2775 2797 2957 2842 3148 3653 3648 3862 4027 4212 4926 3786 3854 3928 3592 3724 3166 2664 2288 1732 1317 1270 1266 1098
2473 2462 2260 2068 1979 1920 1832 1758 1913 1706 2008 2251 2162 2338 2835 3014 2968 2730 2746 2826 3072 2739 2970 3212 3551 3746 3885 3723 4395 3901 4127 3889 3863 3276 3294 3407 3036 2272 1898 1724 1479 1384
2429 2399 2237 1971 1709 1964 1518 1538 1718 1829 1649 1906 1877 1960 2655 2746 3210 3045 2930 2795 2780 2405 2765 3020 3287 3456 3643 3884 4776 4052 3763 4524 4094 3358 3598 3622 3479 2590 2642 1542 1504 1645
2580 2194 1999 1687 1346 1568 1598 1416 1586 1652 1524 1516 1669 1645 1730 1548 1986 2949 3035 3030 2570 2633 2711 2890 2712 2997 3349 3375 3852 3796 3852 4715 3628 3890 4020 3935 3655 3370 3065 2420 1925 1677
2481 2258 1880 1739 1426 1388 1595 1464 1280 1488 1418 1161 1451 1584 1860 2037 2261 2125 2494 2969 2670 2538 2584 2854 2929 2894 3186 3318 3581 3457 3414 3670 3757 4476 4206 4078 4155 3621 3368 3206 3154 2441
2666 2467 2210 1897 1703 1680 1596 1594 1520 1255 1371 965 1293 1360 1589 2405 2138 1726 1967 1954 2250 2019 1896 2208 2498 2541 2952 3247 3457 3343 3175 2849 2819 3938 3878 3812 3643 3257 3046 3279 3540 3273
2567 2606 2238 2012 1806 1656 1841 1693 1617 1470 1092 1100 1100 1401 1418 1707 2034 1831 1920 1774 1374 1420 1309 1703 2255 2198 2388 3054 3332 3507 3416 3212 3250 3585 3698 3508 3369 3403 3334 3387 3789 3815
2441 2401 2498 2165 1766 1637 1937 1784 1686 1658 1483 1373 1065 1342 1575 1359 1735 1641 1900 1981 1506 1465 1557 1526 2075 2529 1919 1992 2797 3186 3283 3120 3138 3346 3658 3381 3377 3400 3560 3525 3780 4045
2424 2398 2489 2278 1857 1558 1538 1432 1548 1665 1641 1575 1118 884 1481 1346 1190 1303 1562 2078 1947 1741 2240 2024 2340 2399 2017 1662 1957 2465 2581 1863 1664 2408 3083 3148 2873 2903 2991 3455 3588 3676
2481 2354 2179 2206 1805 1516 1339 1255 986 1324 1626 1553 1331 722 742 1321 1182 1126 1473 2210 2532 2274 2625 2638 2661 2599 2310 1982 2275 2380 2467 2594 2212 2056 2111 2345 2360 2445 2575 2657 2784 3290
2152 2182 2041 2005 1771 1398 1285 1177 1021 814 1270 1425 1268 820 531 745 1410 1354 1432 2140 2496 2248 2440 2718 2559 2802 2618 1986 1874 2003 2191 1937 1984 2312 2492 2438 2213 2351 2453 2518 2643 2743
2019 2027 1903 1887 1837 1582 1291 1176 1075 922 867 1321 1277 975 754 531 1062 1503 1420 1915 2454 2078 2056 2518 2619 2664 2775 2438 1532 1451 1707 1762 1630 1986 2066 2313 2232 2008 2161 2495 2377 2527
1808 1925 1979 1820 1886 1770 1465 1244 1115 1007 966 1071 1352 1118 867 635 649 1359 1607 1686 2213 2152 1611 2018 2618 2570 2732 2946 2158 1394 1496 1950 1554 1550 1792 1929 2093 1777 1450 1656 2102 2285
1511 1732 1960 1991 1923 2010 1910 1553 1346 1220 1180 1140 1417 1439 1104 871 664 925 1502 1579 1624 1632 1671 1626 2297 2687 2857 3075 2851 1957 1520 1780 2046 1690 1321 1612 1717 1752 1487 1052 1171 1622
1428 1338 1608 2049 2077 2135 2138 1941 1725 1643 1608 1567 1596 1586 1374 1223 1035 812 1073 1345 1259 1239 1214 1212 1186 1838 1954 2365 2690 2596 1978 1493 1827 2106 1756 1322 1425 1378 1550 1599 1134 810
1691 1693 1665 1877 2072 2339 2453 2296 2011 1910 1755 1800 1741 1745 1736 1587 1392 1235 1002 1206 1367 1442 1337 1075 890 846 1344 1251 1725 1999 2145 1292 1172 1774 2020 1707 1707 1850 1507 1236 1299 1187
1970 2085 2055 1908 2247 2569 2611 2660 2385 2059 1963 2048 1997 1895 1925 1938 1759 1484 1187 1059 1120 1335 1396 1164 910 596 616 1079 1255 1429 1485 1819 1748 1598 2192 2462 2067 2090 2258 1593 1173 1118
2002 2375 2478 2228 2255 2543 2784 2880 2694 2339 2182 2188 2077 1884 2082 1932 1818 1737 1635 1278 1036 1101 1213 1266 1267 828 116 725 990 1005 1123 1218 1134 1561 1623 1973 2276 1911 1774 1904 1674 1124
1939 2155 2326 2371 2516 2633 2674 2692 2864 2693 2362 2186 2018 2080 1839 2039 2016 1794 1848 1689 1350 1217 1078 1110 1172 862 815 160 499 764 744 756 707 672 961 1372 1514 2020 2078 1986 1918 1900
2269 1883 1937 2019 2350 2509 2586 2572 2559 2676 2399 2048 1897 1968 2108 2059 1905 1904 1782 1896 1754 1530 1411 1232 1151 879 787 682 371 0 0 230 1053 615 584 784 1174 1512 1762 2034 2270 2202
2146 2199 2093 2052 2008 2226 2224 2282 2320 2285 2352 2087 1682 1732 1952 2118 1996 1909 1854 1817 1658 1579 1594 1386 1225 845 852 824 812 778 731 652 924 767 669 728 852 1160 1571 1813 2235 2533
1589 1819 1631 1892 2248 2135 2106 2176 2190 2354 2319 2308 2027 1603 1673 1763 1991 1978 1882 1853 1732 1666 1568 1545 1478 949 961 977 952 959 929 897 836 814 849 786 830 930 1234 1789 2159 2350
784 1258 1717 2144 1877 1878 1949 1934 1947 2131 2111 2437 2426 2344 1701 1670 1902 1983 2117 1984 1896 1888 1773 1724 1652 1270 1033 1042 1060 1056 1047 1040 1020 987 928 832 706 1040 1200 1473 2007 2508
911 934 1065 1566 1838 1948 1853 1830 1746 1515 1595 2103 2503 2448 2256 2089 1959 2039 2145 2202 2167 2053 1858 1927 1865 1637 1190 1094 1105 1102 1080 1072 1085 1105 1094 1079 1042 1266 1256 1413 1826 2122
932 962 963 1317 1541 1602 1628 2032 1893 1575 1775 1686 1696 2106 2353 2282 2150 1881 2010 2235 2170 2106 1630 1577 1977 1841 1420 1211 1099 1140 1159 1156 1155 1143 1185 1193 1204 1362 1556 1626 1695 1998
420 656 857 943 1047 1352 1504 1915 1680 1604 1438 1782 2170 2076 1957 2062 2099 2154 2045 1902 2021 2103 2116 1817 1953 2118 2983 1472 1294 1140 1184 1227 1244 1215 1203 1419 1570 1315 1813 1909 1950 2116
Wind_Speed
10 11 11 11 12 12 12 11 10 9 9 9 8 7 8 7 7 7 7 6 6 6 6 6 6 6 6 6 6 7 7 6 7 6 5 5 5 4 4 4 5 5
9 10 12 12 12 13 13 12 11 11 9 9 10 9 8 7 5 6 6 6 5 5 5 4 5 5 5 5 4 5 5 5 5 5 5 4 5 5 4 4 4 4
9 10 10 10 12 11 10 11 12 11 10 9 9 9 8 7 6 6 7 6 6 5 4 4 4 4 4 4 5 4 4 4 4 4 4 4 5 4 4 3 2 1
9 9 10 10 12 12 12 12 11 11 11 10 10 9 8 9 8 7 7 7 7 6 5 4 3 4 4 4 4 4 4 4 3 4 4 5 5 5 4 4 4 3
10 10 11 12 13 13 13 12 11 11 10 11 10 9 9 9 9 8 8 8 7 6 6 5 5 4 5 5 4 4 4 3 3 3 3 4 5 5 5 4 4 4
13 13 12 13 14 14 13 12 11 11 11 9 9 10 9 8 7 7 8 7 8 7 7 7 7 6 6 6 5 5 4 4 4 3 2 3 5 5 5 4 4 4
14 14 13 13 12 13 13 13 13 12 11 11 11 9 9 8 7 7 7 7 7 8 8 8 8 7 7 7 7 6 5 5 5 5 4 5 5 6 6 5 5 5
16 16 16 15 13 13 13 14 14 14 12 12 10 11 10 8 8 7 7 7 7 7 7 8 8 8 7 7 6 6 5 5 4 4 4 5 6 5 5 5 5 5
18 18 17 15 13 14 13 13 15 15 15 13 12 12 11 10 8 7 8 8 7 8 8 7 8 7 7 6 7 6 6 5 5 4 4 5 4 4 4 4 4 5
19 19 17 16 14 15 14 14 16 17 16 15 14 14 13 12 10 9 8 8 8 9 9 8 8 7 7 7 6 6 6 6 5 5 6 6 5 4 3 2 3 3
18 19 18 17 16 17 16 17 17 18 18 16 16 15 14 15 13 11 10 9 9 9 9 9 8 8 7 6 7 7 6 6 6 6 6 6 6 5 4 3 2 2
20 19 18 17 18 18 18 18 19 18 19 19 17 16 16 16 15 14 12 10 10 10 10 10 10 9 8 6 6 6 7 7 7 7 7 7 7 6 4 3 2 1
22 22 21 21 20 21 21 21 20 20 19 20 20 18 18 17 16 14 14 13 12 12 11 10 10 9 9 8 6 6 7 8 8 7 7 8 7 6 5 4 2 2
24 25 24 24 24 24 23 22 22 21 21 21 22 20 19 18 17 16 15 15 14 13 12 12 11 10 10 10 8 7 8 8 9 8 8 7 7 7 6 4 4 3
22 25 27 27 26 26 25 24 23 23 23 23 22 21 21 20 19 18 17 15 15 14 13 13 12 11 11 11 11 9 8 8 9 9 9 9 8 7 7 6 5 4
21 23 26 29 29 28 27 27 25 24 24 23 22 22 23 23 21 20 18 17 16 15 15 15 14 14 13 11 12 12 11 10 11 11 11 11 11 10 8 7 6 5
23 23 24 26 30 31 30 29 28 26 25 24 23 24 23 24 23 20 19 18 17 17 16 16 16 15 13 16 15 13 13 13 13 13 13 13 12 12 11 10 9 8
24 23 23 23 26 29 31 31 31 29 27 26 25 24 25 23 22 21 20 19 19 17 17 17 16 16 17 19 17 15 14 14 14 15 15 14 14 13 13 13 12 10
26 23 20 20 23 25 29 31 32 31 29 28 26 26 25 24 23 22 21 21 19 18 17 17 17 16 19 21 20 18 17 16 15 15 15 14 14 14 14 15 15 14
30 23 20 19 19 22 24 27 29 30 29 30 30 30 28 26 24 22 22 22 21 19 19 18 17 17 20 22 22 nan nan 22 17 15 14 14 14 15 16 16 16 16
29 28 25 22 20 20 21 22 24 26 28 30 30 31 30 29 27 25 24 22 20 20 20 19 18 16 21 23 23 23 24 25 21 18 16 14 14 14 15 15 17 18
36 33 28 25 24 23 22 22 22 25 26 29 30 30 30 29 30 28 25 23 21 20 19 19 19 20 21 24 24 24 28 27 23 20 17 16 15 14 15 16 17 17
38 35 33 31 28 25 24 23 23 24 26 30 29 29 28 27 28 29 29 26 23 22 20 19 18 20 23 24 26 28 31 26 24 21 19 17 16 16 16 16 16 17
35 34 32 30 30 30 30 29 32 34 30 28 28 27 27 27 27 28 28 27 26 24 22 21 19 20 24 24 26 32 30 26 24 23 20 18 17 17 17 16 16 16
37 34 34 34 33 32 32 33 35 33 33 34 28 25 26 27 29 29 28 28 25 25 26 22 20 20 24 25 27 31 30 26 25 23 20 18 17 17 17 16 16 18
39 36 35 35 35 35 37 40 43 38 29 26 25 25 25 25 26 27 27 26 26 25 26 24 22 21 26 28 28 31 31 29 26 24 20 18 17 17 18 16 16 17
Wind_Direction
192 198 190 185 180 177 174 173 174 175 171 168 179 191 193 187 180 182 178 181 178 170 175 172 179 182 188 194 190 177 180 175 170 176 163 161 155 135 133 124 133 139
196 200 194 188 187 184 181 176 175 170 174 169 174 194 198 200 206 201 199 193 191 178 183 183 184 184 188 196 204 187 188 182 169 184 175 163 159 152 146 138 135 145
204 208 198 190 189 187 180 182 178 173 170 175 182 186 197 204 208 221 217 207 203 197 214 197 199 204 205 207 224 201 206 203 180 188 194 174 164 168 167 147 138 126
206 208 201 193 188 189 188 186 183 177 175 183 187 197 196 200 208 222 227 225 217 213 222 229 219 231 242 234 234 215 223 227 209 197 203 189 178 169 179 170 161 173
208 214 206 201 197 193 195 193 184 186 179 184 195 202 209 209 214 214 228 237 231 236 241 244 250 244 253 249 251 229 232 231 246 239 215 192 182 174 171 175 170 159
205 213 214 207 207 204 202 202 199 191 189 189 196 203 214 224 221 216 229 237 248 244 249 256 262 262 267 267 259 245 235 227 246 263 211 183 165 167 166 169 160 157
207 217 218 215 210 213 210 210 210 205 200 199 209 207 210 221 229 232 235 239 237 246 249 253 254 256 257 261 262 259 246 229 216 239 212 179 168 154 153 158 153 150
207 217 220 217 214 215 215 216 216 217 213 214 214 220 218 218 226 234 245 247 249 251 250 253 258 257 258 261 264 261 258 254 255 236 207 180 172 163 153 153 148 136
211 216 222 222 218 215 216 218 221 220 221 220 221 225 231 223 225 228 237 249 249 249 254 250 253 258 258 261 261 259 252 240 243 246 218 196 187 174 160 155 136 130
218 217 222 225 220 215 215 217 220 225 225 222 223 223 230 235 227 225 234 244 251 254 255 247 249 250 254 266 270 262 249 241 234 229 219 214 207 200 191 173 143 132
233 228 225 225 222 217 217 218 220 222 228 225 223 221 226 232 234 230 228 236 240 248 253 252 250 250 251 257 265 260 251 235 233 235 228 220 219 219 210 200 185 146
239 237 233 231 228 223 219 219 221 221 225 229 223 223 226 228 232 231 229 231 230 232 240 247 249 253 256 257 263 265 255 240 234 232 230 228 231 234 235 236 229 254
240 240 236 234 235 231 227 224 221 222 224 227 228 224 227 227 230 230 227 225 227 227 228 234 242 249 254 262 264 261 257 248 237 238 235 233 236 240 243 255 268 283
239 239 238 237 236 237 235 231 228 226 227 227 229 228 227 228 226 229 226 223 224 224 225 226 231 238 250 259 263 263 264 259 251 242 241 241 237 244 249 254 273 286
243 239 238 240 240 240 242 240 236 235 234 234 235 232 230 230 229 225 225 221 219 222 222 223 221 225 234 249 257 264 260 260 258 255 253 247 244 244 253 261 261 264
248 245 243 241 241 242 243 245 244 241 241 241 241 240 236 234 232 230 227 224 220 221 223 221 216 215 228 248 249 246 255 251 251 252 250 248 251 249 245 254 262 260
250 255 254 248 245 243 243 245 247 247 245 245 245 245 243 241 239 237 234 230 226 223 225 223 217 216 235 254 258 253 244 245 246 247 250 250 251 252 248 246 249 258
242 251 258 259 253 248 246 245 247 249 249 249 249 250 250 249 248 245 240 236 232 228 226 224 219 220 240 253 258 260 255 243 242 244 247 250 249 249 249 249 250 253
235 240 246 255 259 255 249 247 247 249 250 251 252 252 252 254 253 253 251 248 242 237 231 227 222 230 246 254 258 260 261 254 239 239 244 247 250 251 249 251 251 254
228 231 239 246 254 256 253 250 249 250 250 249 249 251 252 253 256 256 255 255 253 250 244 237 231 230 252 259 262 nan nan 259 245 243 241 242 247 250 252 254 256 254
234 237 234 240 252 258 258 252 247 244 246 247 248 250 252 253 253 253 253 255 257 257 253 250 246 246 253 263 266 269 269 264 254 252 249 250 252 254 254 253 256 257
231 231 236 242 247 253 257 257 254 249 245 244 243 243 247 249 252 253 253 254 254 254 252 252 248 263 267 268 271 271 272 260 260 261 261 259 260 262 261 260 261 260
234 232 231 235 243 247 249 250 251 249 246 244 241 241 241 244 247 250 251 251 252 253 252 248 247 260 271 274 275 276 269 261 264 264 265 268 269 269 268 269 269 269
241 238 237 237 238 242 245 244 242 237 233 240 244 242 242 241 241 244 247 248 249 252 253 250 246 254 272 276 279 280 278 268 265 265 265 267 270 274 274 273 277 284
241 242 243 242 240 239 241 245 251 253 244 237 239 244 244 243 243 240 240 241 245 248 253 253 243 246 267 276 280 282 279 267 266 262 263 265 266 269 274 275 277 281
240 240 242 244 243 241 242 246 247 250 254 256 256 254 251 248 246 246 247 245 242 242 244 251 249 243 256 275 277 280 285 270 265 263 262 265 263 261 263 269 274 275